Time,TemperatureF,DewpointF,PressureIn,WindDirection,WindDirectionDegrees,WindSpeedMPH,WindSpeedGustMPH,Humidity,HourlyPrecipIn,Conditions,Clouds,dailyrainin,SolarRadiationWatts/m^2,SoftwareType,DateUTC
2013-01-23 00:03:00,38.5,30.6,30.24,SW,216,0.0,0.0,73,0.00,,,0.00,0,Wunderground v.1.15,2013-01-23 05:03:00,
2013-01-23 00:13:00,38.9,30.3,30.24,SW,216,0.0,0.0,71,0.00,,,0.00,0,Wunderground v.1.15,2013-01-23 05:13:00,
2013-01-23 00:23:00,39.7,29.6,30.24,SSW,213,0.0,0.0,67,0.00,,,0.00,0,Wunderground v.1.15,2013-01-23 05:23:00,
2013-01-23 00:33:00,40.6,29.0,30.24,WNW,296,1.0,1.0,63,0.00,,,0.00,0,Wunderground v.1.15,2013-01-23 05:33:00,
2013-01-23 00:43:00,41.4,28.9,30.24,West,264,1.0,1.0,61,0.00,,,0.00,0,Wunderground v.1.15,2013-01-23 05:43:00,
2013-01-23 00:53:00,41.5,28.6,30.23,SW,232,0.0,0.0,60,0.00,,,0.00,0,Wunderground v.1.15,2013-01-23 05:53:00,
2013-01-23 01:03:00,41.4,28.1,30.23,NNE,24,0.0,0.0,59,0.00,,,0.00,0,Wunderground v.1.15,2013-01-23 06:03:00,
2013-01-23 01:13:00,41.2,27.9,30.23,WNW,291,0.0,0.0,59,0.00,,,0.00,0,Wunderground v.1.15,2013-01-23 06:13:00,
2013-01-23 01:23:00,40.9,28.1,30.23,WNW,292,0.0,0.0,60,0.00,,,0.00,0,Wunderground v.1.15,2013-01-23 06:23:00,
2013-01-23 01:33:00,40.2,27.8,30.23,WNW,291,0.0,0.0,61,0.00,,,0.00,0,Wunderground v.1.15,2013-01-23 06:33:00,
2013-01-23 01:43:00,40.1,27.3,30.23,NW,306,0.0,4.0,60,0.00,,,0.00,0,Wunderground v.1.15,2013-01-23 06:43:00,
2013-01-23 01:53:00,40.0,27.2,30.23,NNW,348,0.0,0.0,60,0.00,,,0.00,0,Wunderground v.1.15,2013-01-23 06:53:00,
2013-01-23 02:03:00,40.0,27.2,30.23,SE,142,0.0,1.0,60,0.00,,,0.00,0,Wunderground v.1.15,2013-01-23 07:03:00,
2013-01-23 02:13:00,40.0,27.2,30.23,SSW,213,1.0,1.0,60,0.00,,,0.00,0,Wunderground v.1.15,2013-01-23 07:13:00,
2013-01-23 02:23:00,40.1,27.3,30.24,West,270,0.0,1.0,60,0.00,,,0.00,0,Wunderground v.1.15,2013-01-23 07:23:00,
2013-01-23 02:33:00,40.2,27.0,30.24,West,260,1.0,1.0,59,0.00,,,0.00,0,Wunderground v.1.15,2013-01-23 07:33:00,
2013-01-23 02:43:00,40.2,26.6,30.24,SSE,163,1.0,2.0,58,0.00,,,0.00,0,Wunderground v.1.15,2013-01-23 07:43:00,
2013-01-23 02:53:00,40.2,26.6,30.24,SW,225,1.0,1.0,58,0.00,,,0.00,0,Wunderground v.1.15,2013-01-23 07:53:00,
2013-01-23 03:03:00,40.0,26.8,30.24,NW,315,0.0,1.0,59,0.00,,,0.00,0,Wunderground v.1.15,2013-01-23 08:03:00,
2013-01-23 03:13:00,39.9,26.7,30.24,NNW,337,1.0,1.0,59,0.00,,,0.00,0,Wunderground v.1.15,2013-01-23 08:13:00,
2013-01-23 03:23:00,39.8,26.2,30.25,NW,317,1.0,1.0,58,0.00,,,0.00,0,Wunderground v.1.15,2013-01-23 08:23:00,
2013-01-23 03:33:00,39.8,25.8,30.24,North,3,1.0,1.0,57,0.00,,,0.00,0,Wunderground v.1.15,2013-01-23 08:33:00,
2013-01-23 03:43:00,39.7,25.7,30.24,NW,324,1.0,2.0,57,0.00,,,0.00,0,Wunderground v.1.15,2013-01-23 08:43:00,
2013-01-23 03:53:00,39.5,25.9,30.25,WNW,300,1.0,2.0,58,0.00,,,0.00,0,Wunderground v.1.15,2013-01-23 08:53:00,
2013-01-23 04:03:00,39.2,25.6,30.24,NNE,30,1.0,1.0,58,0.00,,,0.00,0,Wunderground v.1.15,2013-01-23 09:03:00,
2013-01-23 04:13:00,39.1,26.0,30.24,South,189,1.0,1.0,59,0.00,,,0.00,0,Wunderground v.1.15,2013-01-23 09:13:00,
2013-01-23 04:23:00,38.9,25.8,30.25,NW,313,1.0,1.0,59,0.00,,,0.00,0,Wunderground v.1.15,2013-01-23 09:23:00,
2013-01-23 04:33:00,38.7,25.6,30.24,NW,310,1.0,1.0,59,0.00,,,0.00,0,Wunderground v.1.15,2013-01-23 09:33:00,
2013-01-23 04:43:00,38.4,25.3,30.24,SW,222,1.0,1.0,59,0.00,,,0.00,0,Wunderground v.1.15,2013-01-23 09:43:00,
2013-01-23 04:53:00,38.2,25.5,30.24,NNE,30,1.0,2.0,60,0.00,,,0.00,0,Wunderground v.1.15,2013-01-23 09:53:00,
2013-01-23 05:03:00,37.9,25.2,30.25,SSW,208,1.0,6.0,60,0.00,,,0.00,0,Wunderground v.1.15,2013-01-23 10:03:00,
2013-01-23 05:13:00,37.9,25.2,30.25,WSW,247,1.0,1.0,60,0.00,,,0.00,0,Wunderground v.1.15,2013-01-23 10:13:00,
2013-01-23 05:23:00,37.9,25.2,30.24,West,265,1.0,1.0,60,0.00,,,0.00,0,Wunderground v.1.15,2013-01-23 10:23:00,
2013-01-23 05:33:00,37.8,25.1,30.25,NW,318,1.0,4.0,60,0.00,,,0.00,0,Wunderground v.1.15,2013-01-23 10:33:00,
2013-01-23 05:43:00,37.8,25.1,30.25,NNW,348,1.0,1.0,60,0.00,,,0.00,0,Wunderground v.1.15,2013-01-23 10:43:00,
2013-01-23 05:53:00,37.7,25.1,30.25,NW,319,1.0,1.0,60,0.00,,,0.00,0,Wunderground v.1.15,2013-01-23 10:53:00,
2013-01-23 06:03:00,37.9,24.8,30.26,North,353,2.0,2.0,59,0.00,,,0.00,0,Wunderground v.1.15,2013-01-23 11:03:00,
2013-01-23 06:13:00,37.7,24.6,30.26,West,262,1.0,1.0,59,0.00,,,0.00,0,Wunderground v.1.15,2013-01-23 11:13:00,
2013-01-23 06:23:00,37.4,24.8,30.26,NW,317,1.0,1.0,60,0.00,,,0.00,0,Wunderground v.1.15,2013-01-23 11:23:00,
2013-01-23 06:33:00,37.3,24.7,30.27,WNW,301,1.0,1.0,60,0.00,,,0.00,0,Wunderground v.1.15,2013-01-23 11:33:00,
2013-01-23 06:43:00,37.2,24.6,30.27,North,6,1.0,4.0,60,0.00,,,0.00,0,Wunderground v.1.15,2013-01-23 11:43:00,
2013-01-23 06:53:00,37.0,24.4,30.27,WNW,290,1.0,6.0,60,0.00,,,0.00,0,Wunderground v.1.15,2013-01-23 11:53:00,
2013-01-23 07:03:00,36.8,24.6,30.27,North,352,1.0,4.0,61,0.00,,,0.00,0,Wunderground v.1.15,2013-01-23 12:03:00,
2013-01-23 07:13:00,36.7,24.9,30.27,NW,317,1.0,1.0,62,0.00,,,0.00,0,Wunderground v.1.15,2013-01-23 12:13:00,
2013-01-23 07:23:00,36.5,25.1,30.28,WNW,287,1.0,1.0,63,0.00,,,0.00,0,Wunderground v.1.15,2013-01-23 12:23:00,
2013-01-23 07:33:00,36.2,24.4,30.29,West,271,0.0,0.0,62,0.00,,,0.00,9,Wunderground v.1.15,2013-01-23 12:33:00,
2013-01-23 07:43:00,36.0,24.6,30.29,WSW,241,0.0,2.0,63,0.00,,,0.00,14,Wunderground v.1.15,2013-01-23 12:43:00,
2013-01-23 07:53:00,36.0,24.2,30.30,North,2,1.0,1.0,62,0.00,,,0.00,19,Wunderground v.1.15,2013-01-23 12:53:00,
2013-01-23 08:03:00,36.1,24.7,30.30,WSW,239,1.0,3.0,63,0.00,,,0.00,26,Wunderground v.1.15,2013-01-23 13:03:00,
2013-01-23 08:13:00,36.2,24.8,30.30,North,2,1.0,1.0,63,0.00,,,0.00,30,Wunderground v.1.15,2013-01-23 13:13:00,
2013-01-23 08:23:00,36.5,25.1,30.30,NW,317,1.0,1.0,63,0.00,,,0.00,35,Wunderground v.1.15,2013-01-23 13:23:00,
2013-01-23 08:33:00,36.8,25.4,30.30,North,10,1.0,1.0,63,0.00,,,0.00,39,Wunderground v.1.15,2013-01-23 13:33:00,
2013-01-23 08:43:00,37.2,25.8,30.30,NNW,337,1.0,1.0,63,0.00,,,0.00,42,Wunderground v.1.15,2013-01-23 13:43:00,
2013-01-23 08:53:00,37.6,26.1,30.31,NW,309,1.0,1.0,63,0.00,,,0.00,70,Wunderground v.1.15,2013-01-23 13:53:00,
2013-01-23 09:03:00,38.2,26.3,30.32,North,355,1.0,1.0,62,0.00,,,0.00,146,Wunderground v.1.15,2013-01-23 14:03:00,
2013-01-23 09:13:00,38.9,26.2,30.32,NNW,329,1.0,1.0,60,0.00,,,0.00,283,Wunderground v.1.15,2013-01-23 14:13:00,
2013-01-23 09:23:00,40.0,26.8,30.32,NNE,14,1.0,1.0,59,0.00,,,0.00,318,Wunderground v.1.15,2013-01-23 14:23:00,
2013-01-23 09:33:00,41.0,26.5,30.32,NNW,348,1.0,2.0,56,0.00,,,0.00,350,Wunderground v.1.15,2013-01-23 14:33:00,
2013-01-23 09:43:00,42.0,27.0,30.32,NW,325,1.0,1.0,55,0.00,,,0.00,374,Wunderground v.1.15,2013-01-23 14:43:00,
2013-01-23 09:53:00,42.7,25.8,30.32,North,350,1.0,1.0,51,0.00,,,0.00,401,Wunderground v.1.15,2013-01-23 14:53:00,
2013-01-23 10:03:00,43.6,25.2,30.33,North,350,1.0,1.0,48,0.00,,,0.00,425,Wunderground v.1.15,2013-01-23 15:03:00,
2013-01-23 10:13:00,44.1,25.6,30.33,North,9,1.0,1.0,48,0.00,,,0.00,446,Wunderground v.1.15,2013-01-23 15:13:00,
2013-01-23 10:23:00,44.9,25.9,30.33,NW,308,1.0,1.0,47,0.00,,,0.00,468,Wunderground v.1.15,2013-01-23 15:23:00,
2013-01-23 10:33:00,45.5,25.9,30.33,NNW,344,1.0,1.0,46,0.00,,,0.00,489,Wunderground v.1.15,2013-01-23 15:33:00,
2013-01-23 10:43:00,46.1,25.9,30.33,North,4,1.0,1.0,45,0.00,,,0.00,506,Wunderground v.1.15,2013-01-23 15:43:00,
2013-01-23 10:53:00,46.9,26.1,30.32,NNW,329,1.0,2.0,44,0.00,,,0.00,524,Wunderground v.1.15,2013-01-23 15:53:00,
2013-01-23 11:03:00,47.7,26.8,30.32,NW,313,1.0,1.0,44,0.00,,,0.00,541,Wunderground v.1.15,2013-01-23 16:03:00,
2013-01-23 11:13:00,48.7,27.7,30.32,NNE,22,0.0,1.0,44,0.00,,,0.00,555,Wunderground v.1.15,2013-01-23 16:13:00,
2013-01-23 11:23:00,49.2,27.1,30.32,North,354,1.0,1.0,42,0.00,,,0.00,568,Wunderground v.1.15,2013-01-23 16:23:00,
2013-01-23 11:33:00,49.6,27.4,30.31,North,354,0.0,0.0,42,0.00,,,0.00,582,Wunderground v.1.15,2013-01-23 16:33:00,
2013-01-23 11:43:00,50.1,27.9,30.31,NNE,30,0.0,2.0,42,0.00,,,0.00,591,Wunderground v.1.15,2013-01-23 16:43:00,
2013-01-23 11:53:00,50.5,27.0,30.30,NE,36,1.0,1.0,40,0.00,,,0.00,596,Wunderground v.1.15,2013-01-23 16:53:00,
2013-01-23 12:04:00,51.0,28.1,30.30,NNE,13,1.0,1.0,41,0.00,,,0.00,601,Wunderground v.1.15,2013-01-23 17:04:00,
2013-01-23 12:13:00,51.4,27.2,30.30,West,279,1.0,1.0,39,0.00,,,0.00,606,Wunderground v.1.15,2013-01-23 17:13:00,
2013-01-23 12:23:00,51.8,28.8,30.29,North,356,1.0,1.0,41,0.00,,,0.00,608,Wunderground v.1.15,2013-01-23 17:23:00,
2013-01-23 12:33:00,52.3,29.3,30.27,North,358,0.0,2.0,41,0.00,,,0.00,608,Wunderground v.1.15,2013-01-23 17:33:00,
2013-01-23 12:43:00,52.2,28.6,30.27,North,358,1.0,1.0,40,0.00,,,0.00,606,Wunderground v.1.15,2013-01-23 17:43:00,
2013-01-23 12:53:00,52.7,29.6,30.27,SW,217,1.0,1.0,41,0.00,,,0.00,603,Wunderground v.1.15,2013-01-23 17:53:00,
2013-01-23 13:03:00,53.3,29.6,30.26,West,262,1.0,1.0,40,0.00,,,0.00,598,Wunderground v.1.15,2013-01-23 18:03:00,
2013-01-23 13:13:00,53.5,31.0,30.26,West,265,0.0,2.0,42,0.00,,,0.00,589,Wunderground v.1.15,2013-01-23 18:13:00,
2013-01-23 13:23:00,53.7,29.9,30.26,West,262,1.0,1.0,40,0.00,,,0.00,582,Wunderground v.1.15,2013-01-23 18:23:00,
2013-01-23 13:33:00,53.4,30.3,30.25,WSW,257,1.0,1.0,41,0.00,,,0.00,570,Wunderground v.1.15,2013-01-23 18:33:00,
2013-01-23 13:43:00,53.3,30.8,30.25,WNW,292,1.0,2.0,42,0.00,,,0.00,559,Wunderground v.1.15,2013-01-23 18:43:00,
2013-01-23 13:53:00,53.4,33.1,30.24,WSW,238,1.0,1.0,46,0.00,,,0.00,545,Wunderground v.1.15,2013-01-23 18:53:00,
2013-01-23 14:03:00,52.9,34.2,30.23,SSE,152,1.0,1.0,49,0.00,,,0.00,534,Wunderground v.1.15,2013-01-23 19:03:00,
2013-01-23 14:13:00,52.6,35.0,30.23,SW,225,1.0,1.0,51,0.00,,,0.00,512,Wunderground v.1.15,2013-01-23 19:13:00,
2013-01-23 14:23:00,52.3,34.7,30.23,SE,140,1.0,1.0,51,0.00,,,0.00,415,Wunderground v.1.15,2013-01-23 19:23:00,
2013-01-23 14:33:00,52.3,36.1,30.22,SW,214,1.0,1.0,54,0.00,,,0.00,72,Wunderground v.1.15,2013-01-23 19:33:00,
2013-01-23 14:43:00,52.3,33.7,30.22,WNW,294,1.0,1.0,49,0.00,,,0.00,58,Wunderground v.1.15,2013-01-23 19:43:00,
2013-01-23 14:53:00,52.2,35.1,30.21,WSW,244,1.0,1.0,52,0.00,,,0.00,74,Wunderground v.1.15,2013-01-23 19:53:00,
2013-01-23 15:03:00,52.5,34.4,30.21,SW,231,1.0,1.0,50,0.00,,,0.00,81,Wunderground v.1.15,2013-01-23 20:03:00,
2013-01-23 15:13:00,52.5,35.4,30.21,WSW,258,0.0,0.0,52,0.00,,,0.00,58,Wunderground v.1.15,2013-01-23 20:13:00,
2013-01-23 15:23:00,53.3,35.1,30.20,South,184,0.0,0.0,50,0.00,,,0.00,322,Wunderground v.1.15,2013-01-23 20:23:00,
2013-01-23 15:33:00,53.5,34.8,30.19,NW,325,1.0,1.0,49,0.00,,,0.00,250,Wunderground v.1.15,2013-01-23 20:33:00,
2013-01-23 15:43:00,53.1,37.3,30.19,WNW,284,1.0,1.0,55,0.00,,,0.00,156,Wunderground v.1.15,2013-01-23 20:43:00,
2013-01-23 15:53:00,52.8,38.0,30.20,WNW,282,0.0,0.0,57,0.00,,,0.00,102,Wunderground v.1.15,2013-01-23 20:53:00,
2013-01-23 16:03:00,52.0,37.2,30.20,South,189,1.0,1.0,57,0.00,,,0.00,72,Wunderground v.1.15,2013-01-23 21:03:00,
2013-01-23 16:13:00,51.6,38.2,30.20,NNE,13,1.0,2.0,60,0.00,,,0.00,46,Wunderground v.1.15,2013-01-23 21:13:00,
2013-01-23 16:33:00,51.0,37.6,30.20,NW,309,1.0,1.0,60,0.00,,,0.00,39,Wunderground v.1.15,2013-01-23 21:33:00,
2013-01-23 16:43:00,50.8,37.8,30.20,ESE,115,1.0,1.0,61,0.00,,,0.00,33,Wunderground v.1.15,2013-01-23 21:43:00,
2013-01-23 16:53:00,50.5,38.0,30.20,WSW,238,1.0,1.0,62,0.00,,,0.00,28,Wunderground v.1.15,2013-01-23 21:53:00,
2013-01-23 17:03:00,50.2,38.1,30.20,WSW,246,1.0,1.0,63,0.00,,,0.00,23,Wunderground v.1.15,2013-01-23 22:03:00,
2013-01-23 17:13:00,49.9,38.2,30.20,WSW,246,0.0,1.0,64,0.00,,,0.00,18,Wunderground v.1.15,2013-01-23 22:13:00,
2013-01-23 17:23:00,49.4,38.1,30.20,WSW,244,0.0,0.0,65,0.00,,,0.00,12,Wunderground v.1.15,2013-01-23 22:23:00,
2013-01-23 17:33:00,48.8,38.3,30.20,WSW,243,0.0,0.0,67,0.00,,,0.00,7,Wunderground v.1.15,2013-01-23 22:33:00,
2013-01-23 17:43:00,48.3,38.2,30.20,WSW,243,0.0,0.0,68,0.00,,,0.00,0,Wunderground v.1.15,2013-01-23 22:43:00,
2013-01-23 17:53:00,47.8,38.5,30.19,WSW,251,0.0,2.0,70,0.00,,,0.00,0,Wunderground v.1.15,2013-01-23 22:53:00,
2013-01-23 18:03:00,48.1,38.4,30.19,ESE,102,0.0,0.0,69,0.00,,,0.00,0,Wunderground v.1.15,2013-01-23 23:03:00,
2013-01-23 18:13:00,48.2,38.9,30.19,WSW,244,0.0,0.0,70,0.00,,,0.00,0,Wunderground v.1.15,2013-01-23 23:13:00,
2013-01-23 18:23:00,48.4,39.1,30.19,ESE,102,0.0,0.0,70,0.00,,,0.00,0,Wunderground v.1.15,2013-01-23 23:23:00,
2013-01-23 18:33:00,48.8,39.8,30.20,WNW,297,0.0,0.0,71,0.00,,,0.00,0,Wunderground v.1.15,2013-01-23 23:33:00,
2013-01-23 18:43:00,48.8,39.8,30.20,WSW,244,0.0,0.0,71,0.00,,,0.00,0,Wunderground v.1.15,2013-01-23 23:43:00,
2013-01-23 18:53:00,48.7,39.7,30.20,WSW,244,0.0,0.0,71,0.00,,,0.00,0,Wunderground v.1.15,2013-01-23 23:53:00,
2013-01-23 19:03:00,48.7,40.1,30.20,WSW,245,0.0,0.0,72,0.00,,,0.00,0,Wunderground v.1.15,2013-01-24 00:03:00,
2013-01-23 19:13:00,48.7,40.4,30.20,WNW,296,0.0,0.0,73,0.00,,,0.00,0,Wunderground v.1.15,2013-01-24 00:13:00,
2013-01-23 19:23:00,48.7,41.1,30.20,NNW,332,0.0,1.0,75,0.00,,,0.00,0,Wunderground v.1.15,2013-01-24 00:23:00,
2013-01-23 19:33:00,49.1,41.5,30.20,WSW,237,0.0,3.0,75,0.00,,,0.00,0,Wunderground v.1.15,2013-01-24 00:33:00,
2013-01-23 19:43:00,49.5,41.9,30.20,SW,235,1.0,1.0,75,0.00,,,0.00,0,Wunderground v.1.15,2013-01-24 00:43:00,
2013-01-23 19:53:00,49.7,42.1,30.20,WSW,246,0.0,0.0,75,0.00,,,0.00,0,Wunderground v.1.15,2013-01-24 00:53:00,
2013-01-23 20:03:00,49.5,42.2,30.19,WSW,246,0.0,0.0,76,0.00,,,0.00,0,Wunderground v.1.15,2013-01-24 01:03:00,
2013-01-23 20:13:00,49.4,42.5,30.19,West,271,0.0,0.0,77,0.00,,,0.00,0,Wunderground v.1.15,2013-01-24 01:13:00,
2013-01-23 20:23:00,49.3,42.7,30.20,SW,230,0.0,0.0,78,0.00,,,0.00,0,Wunderground v.1.15,2013-01-24 01:23:00,
2013-01-23 20:33:00,49.0,42.8,30.19,SW,230,0.0,0.0,79,0.00,,,0.00,0,Wunderground v.1.15,2013-01-24 01:33:00,
2013-01-23 20:43:00,48.7,42.5,30.19,SW,230,0.0,0.0,79,0.00,,,0.00,0,Wunderground v.1.15,2013-01-24 01:43:00,
2013-01-23 20:53:00,48.4,42.5,30.18,SW,230,0.0,0.0,80,0.00,,,0.00,0,Wunderground v.1.15,2013-01-24 01:53:00,
2013-01-23 21:03:00,48.0,41.5,30.19,SW,230,0.0,0.0,78,0.00,,,0.00,0,Wunderground v.1.15,2013-01-24 02:03:00,
2013-01-23 21:13:00,47.6,40.7,30.19,SW,230,0.0,0.0,77,0.00,,,0.00,0,Wunderground v.1.15,2013-01-24 02:13:00,
2013-01-23 21:23:00,47.5,39.3,30.18,SW,231,0.0,0.0,73,0.00,,,0.00,0,Wunderground v.1.15,2013-01-24 02:23:00,
2013-01-23 21:33:00,47.9,39.7,30.18,WNW,287,0.0,0.0,73,0.00,,,0.00,0,Wunderground v.1.15,2013-01-24 02:33:00,
2013-01-23 21:43:00,48.1,39.9,30.18,SW,236,0.0,0.0,73,0.00,,,0.00,0,Wunderground v.1.15,2013-01-24 02:43:00,
2013-01-23 21:53:00,48.3,39.7,30.18,WSW,242,0.0,0.0,72,0.00,,,0.00,0,Wunderground v.1.15,2013-01-24 02:53:00,
2013-01-23 22:03:00,48.3,39.3,30.18,WSW,243,0.0,0.0,71,0.00,,,0.00,0,Wunderground v.1.15,2013-01-24 03:03:00,
2013-01-23 22:13:00,48.3,39.3,30.18,WSW,243,0.0,1.0,71,0.00,,,0.00,0,Wunderground v.1.15,2013-01-24 03:13:00,
2013-01-23 22:23:00,48.4,39.1,30.18,WSW,246,1.0,1.0,70,0.00,,,0.00,0,Wunderground v.1.15,2013-01-24 03:23:00,
2013-01-23 22:33:00,48.7,39.4,30.18,West,271,1.0,1.0,70,0.00,,,0.00,0,Wunderground v.1.15,2013-01-24 03:33:00,
2013-01-23 22:43:00,48.8,39.1,30.18,West,278,0.0,1.0,69,0.00,,,0.00,0,Wunderground v.1.15,2013-01-24 03:43:00,
2013-01-23 22:53:00,49.0,39.3,30.18,NW,322,1.0,1.0,69,0.00,,,0.00,0,Wunderground v.1.15,2013-01-24 03:53:00,
2013-01-23 23:03:00,49.1,39.4,30.18,West,277,0.0,1.0,69,0.00,,,0.00,0,Wunderground v.1.15,2013-01-24 04:03:00,
2013-01-23 23:13:00,48.9,39.5,30.18,WSW,250,0.0,1.0,70,0.00,,,0.00,0,Wunderground v.1.15,2013-01-24 04:13:00,
2013-01-23 23:23:00,48.9,39.2,30.16,South,184,0.0,0.0,69,0.00,,,0.00,0,Wunderground v.1.15,2013-01-24 04:23:00,
2013-01-23 23:33:00,48.9,39.5,30.16,West,277,0.0,0.0,70,0.00,,,0.00,0,Wunderground v.1.15,2013-01-24 04:33:00,
2013-01-23 23:43:00,49.0,39.6,30.16,WSW,258,1.0,1.0,70,0.00,,,0.00,0,Wunderground v.1.15,2013-01-24 04:43:00,
2013-01-23 23:53:00,48.9,39.9,30.15,WSW,257,0.0,1.0,71,0.00,,,0.00,0,Wunderground v.1.15,2013-01-24 04:53:00,